TimeCDT,TemperatureF,Dew PointF,Humidity,Sea Level PressureIn,VisibilityMPH,Wind Direction,Wind SpeedMPH,Gust SpeedMPH,PrecipitationIn,Events,Conditions,WindDirDegrees,DateUTC
12:27 AM,53.6,48.2,82,30.15,9.0,Variable,5.8,-,N/A,,Overcast,0,2012-10-07 05:27:00
12:53 AM,53.1,48.0,83,30.14,10.0,Variable,6.9,-,N/A,,Overcast,0,2012-10-07 05:53:00
1:53 AM,53.1,46.9,80,30.16,10.0,North,8.1,-,N/A,,Overcast,10,2012-10-07 06:53:00
2:07 AM,53.6,46.4,77,30.17,10.0,Variable,4.6,-,N/A,,Overcast,0,2012-10-07 07:07:00
2:53 AM,52.0,44.1,74,30.17,10.0,Variable,6.9,-,N/A,,Overcast,0,2012-10-07 07:53:00
3:03 AM,51.8,44.6,76,30.17,10.0,Variable,3.5,-,N/A,,Overcast,0,2012-10-07 08:03:00
3:53 AM,51.1,42.1,71,30.17,10.0,North,8.1,-,N/A,,Overcast,360,2012-10-07 08:53:00
4:53 AM,51.1,43.0,74,30.17,10.0,Variable,4.6,-,N/A,,Overcast,0,2012-10-07 09:53:00
5:53 AM,50.0,39.9,68,30.19,10.0,Variable,6.9,-,N/A,,Overcast,0,2012-10-07 10:53:00
6:53 AM,50.0,41.0,71,30.20,10.0,Variable,5.8,-,N/A,,Overcast,0,2012-10-07 11:53:00
7:53 AM,50.0,41.0,71,30.22,10.0,NE,5.8,-,N/A,,Overcast,50,2012-10-07 12:53:00
8:53 AM,51.1,42.1,71,30.23,10.0,Variable,5.8,-,N/A,,Overcast,0,2012-10-07 13:53:00
9:53 AM,52.0,41.0,66,30.24,10.0,Variable,3.5,-,N/A,,Overcast,0,2012-10-07 14:53:00
10:53 AM,53.1,41.0,64,30.24,10.0,Variable,4.6,-,N/A,,Overcast,0,2012-10-07 15:53:00
11:53 AM,55.0,42.1,62,30.22,10.0,Variable,3.5,-,N/A,,Overcast,0,2012-10-07 16:53:00
12:53 PM,57.0,43.0,59,30.19,10.0,Variable,4.6,-,N/A,,Overcast,0,2012-10-07 17:53:00
1:53 PM,59.0,43.0,55,30.17,10.0,Variable,3.5,-,N/A,,Overcast,0,2012-10-07 18:53:00
2:53 PM,60.1,44.1,55,30.15,10.0,North,6.9,-,N/A,,Overcast,360,2012-10-07 19:53:00
3:53 PM,60.1,44.1,55,30.13,10.0,Variable,3.5,-,N/A,,Overcast,0,2012-10-07 20:53:00
4:53 PM,60.1,45.0,57,30.12,10.0,Variable,5.8,-,N/A,,Overcast,0,2012-10-07 21:53:00
5:53 PM,57.0,44.1,62,30.13,10.0,Variable,5.8,-,N/A,,Overcast,0,2012-10-07 22:53:00
6:53 PM,55.9,44.1,64,30.15,10.0,North,8.1,-,N/A,,Overcast,360,2012-10-07 23:53:00
7:53 PM,55.0,44.1,67,30.17,10.0,North,3.5,-,N/A,,Overcast,360,2012-10-08 00:53:00
8:10 PM,53.6,44.6,72,30.18,10.0,North,5.8,-,N/A,,Overcast,360,2012-10-08 01:10:00
8:53 PM,54.0,44.1,69,30.19,10.0,Variable,4.6,-,N/A,,Overcast,0,2012-10-08 01:53:00
9:53 PM,54.0,44.1,69,30.20,10.0,Variable,3.5,-,N/A,,Overcast,0,2012-10-08 02:53:00
10:53 PM,53.1,44.1,71,30.20,10.0,Variable,3.5,-,N/A,,Overcast,0,2012-10-08 03:53:00
11:53 PM,53.1,44.1,71,30.21,10.0,NNW,5.8,-,N/A,,Overcast,340,2012-10-08 04:53:00